| time (UTC) | temp F | wind direction | speed knots | gust knots | rain 1hr in | rain 24hr in | rain mn in | humidity % | barometer mb |
| 20260506102612 | 56 | 44 | 4.3 | 9.6 | 0.00 | 0.00 | 0.00 | 62 | 1009.3 |
| 20260506101903 | 56 | 68 | 4.3 | 11.3 | 0.00 | 0.00 | 0.00 | 61 | 1009.4 |
| 20260506101402 | 56 | 57 | 4.3 | 11.3 | 0.00 | 0.00 | 0.00 | 61 | 1009.3 |
| 20260506100904 | 56 | 38 | 3.5 | 10.4 | 0.00 | 0.00 | 0.00 | 63 | 1009.3 |
| 20260506100657 | 57 | 46 | 3.5 | 10.4 | 0.00 | 0.00 | 0.00 | 63 | 1009.2 |
| 20260506100610 | 57 | 46 | 3.5 | 10.4 | 0.00 | 0.00 | 0.00 | 63 | 1009.2 |
| 20260506095906 | 56 | 42 | 3.5 | 10.4 | 0.00 | 0.00 | 0.00 | 65 | 1009.2 |
| 20260506095405 | 56 | 55 | 3.5 | 10.4 | 0.00 | 0.00 | 0.00 | 66 | 1009.1 |
| 20260506095207 | 56 | 28 | 4.3 | 11.3 | 0.00 | 0.00 | 0.00 | 71 | 1009.2 |
| 20260506095115 | 56 | 28 | 4.3 | 11.3 | 0.00 | 0.00 | 0.00 | 71 | 1009.2 |
| 20260506094401 | 56 | 40 | 5.2 | 13.0 | 0.00 | 0.00 | 0.00 | 72 | 1009.1 |
| 20260506093904 | 55 | 23 | 5.2 | 13.0 | 0.00 | 0.00 | 0.00 | 73 | 1009.1 |
| 20260506093403 | 55 | 13 | 5.2 | 12.2 | 0.00 | 0.00 | 0.00 | 75 | 1009.1 |
| 20260506093220 | 55 | 330 | 5.2 | 12.2 | 0.00 | 0.00 | 0.00 | 76 | 1009.1 |
| 20260506093113 | 55 | 330 | 5.2 | 12.2 | 0.00 | 0.00 | 0.00 | 76 | 1009.1 |
| 20260506092402 | 55 | 36 | 5.2 | 10.4 | 0.00 | 0.00 | 0.00 | 76 | 1009.1 |
| 20260506091905 | 55 | 23 | 4.3 | 12.2 | 0.00 | 0.00 | 0.00 | 77 | 1009.1 |
| 20260506091405 | 55 | 26 | 5.2 | 12.2 | 0.00 | 0.00 | 0.00 | 77 | 1009.0 |
| 20260506091004 | 55 | 346 | 5.2 | 11.3 | 0.00 | 0.00 | 0.00 | 78 | 1009.0 |
| 20260506090938 | 55 | 49 | 5.2 | 12.2 | 0.00 | 0.00 | 0.00 | 77 | 1009.0 |
| 20260506090613 | 55 | 346 | 5.2 | 11.3 | 0.00 | 0.00 | 0.00 | 78 | 1009.0 |
| 20260506085906 | 54 | 331 | 5.2 | 11.3 | 0.00 | 0.00 | 0.00 | 78 | 1009.0 |
| 20260506085402 | 54 | 90 | 5.2 | 10.4 | 0.00 | 0.00 | 0.00 | 77 | 1009.0 |
| 20260506084909 | 55 | 346 | 4.3 | 10.4 | 0.00 | 0.00 | 0.00 | 76 | 1009.0 |
| 20260506084402 | 55 | 5 | 4.3 | 10.4 | 0.00 | 0.00 | 0.00 | 75 | 1009.0 |
| 20260506083903 | 55 | 13 | 4.3 | 9.6 | 0.00 | 0.00 | 0.00 | 75 | 1009.0 |
| 20260506083403 | 55 | 38 | 4.3 | 10.4 | 0.00 | 0.00 | 0.00 | 75 | 1008.9 |
| 20260506083023 | 55 | 33 | 5.2 | 13.0 | 0.00 | 0.00 | 0.00 | 74 | 1008.9 |
| 20260506082952 | 55 | 38 | 5.2 | 11.3 | 0.00 | 0.00 | 0.00 | 74 | 1008.9 |
| 20260506082613 | 55 | 33 | 5.2 | 13.0 | 0.00 | 0.00 | 0.00 | 74 | 1008.9 |
| 20260506081903 | 55 | 340 | 5.2 | 13.0 | 0.00 | 0.00 | 0.00 | 73 | 1008.9 |
| 20260506081657 | 55 | 0 | 5.2 | 12.2 | 0.00 | 0.00 | 0.00 | 73 | 1008.9 |
| 20260506081610 | 55 | 0 | 5.2 | 12.2 | 0.00 | 0.00 | 0.00 | 73 | 1008.9 |
| 20260506081200 | 55 | 5 | 5.2 | 12.2 | 0.00 | 0.00 | 0.00 | 74 | 1008.9 |
| 20260506081112 | 55 | 5 | 5.2 | 12.2 | 0.00 | 0.00 | 0.00 | 74 | 1008.9 |
| 20260506080408 | 55 | 355 | 5.2 | 10.4 | 0.00 | 0.00 | 0.00 | 74 | 1008.9 |
| 20260506080401 | 55 | 26 | 5.2 | 10.4 | 0.00 | 0.00 | 0.00 | 74 | 1008.9 |
| 20260506073404 | 54 | 61 | 5.2 | 14.8 | 0.00 | 0.00 | 0.00 | 71 | 1008.8 |
| 20260506073355 | 54 | 63 | 5.2 | 14.8 | 0.00 | 0.00 | 0.00 | 71 | 1008.8 |
| 20260506072904 | 54 | 58 | 5.2 | 14.8 | 0.00 | 0.00 | 0.00 | 71 | 1008.8 |
| 20260506072854 | 54 | 48 | 5.2 | 14.8 | 0.00 | 0.00 | 0.00 | 71 | 1008.8 |
| 20260506072650 | 54 | 39 | 5.2 | 13.9 | 0.00 | 0.00 | 0.00 | 71 | 1008.7 |
| 20260506072605 | 54 | 69 | 5.2 | 13.9 | 0.00 | 0.00 | 0.00 | 71 | 1008.7 |
| 20260506072149 | 54 | 51 | 3.5 | 10.4 | 0.00 | 0.00 | 0.00 | 72 | 1008.7 |
| 20260506072104 | 54 | 51 | 3.5 | 10.4 | 0.00 | 0.00 | 0.00 | 72 | 1008.7 |
| 20260506071403 | 54 | 21 | 1.7 | 7.0 | 0.00 | 0.00 | 0.00 | 74 | 1008.7 |
| 20260506071351 | 54 | 42 | 1.7 | 7.0 | 0.00 | 0.00 | 0.00 | 74 | 1008.7 |
| 20260506070904 | 54 | 46 | 2.6 | 8.7 | 0.00 | 0.00 | 0.00 | 74 | 1008.7 |
| 20260506070846 | 54 | 44 | 2.6 | 8.7 | 0.00 | 0.00 | 0.00 | 75 | 1008.7 |
| 20260506070640 | 53 | 51 | 3.5 | 8.7 | 0.00 | 0.00 | 0.00 | 75 | 1008.6 |
| 20260506070557 | 53 | 51 | 2.6 | 8.7 | 0.00 | 0.00 | 0.00 | 75 | 1008.6 |
| 20260506062403 | 52 | 29 | 3.5 | 11.3 | 0.00 | 0.00 | 0.00 | 84 | 1008.5 |
| 20260506062332 | 52 | 34 | 3.5 | 11.3 | 0.00 | 0.00 | 0.00 | 84 | 1008.5 |
| 20260506061904 | 52 | 10 | 3.5 | 10.4 | 0.00 | 0.00 | 0.00 | 85 | 1008.5 |
| 20260506061834 | 52 | 355 | 3.5 | 10.4 | 0.00 | 0.00 | 0.00 | 85 | 1008.4 |
| 20260506061405 | 52 | 20 | 3.5 | 10.4 | 0.00 | 0.00 | 0.00 | 84 | 1008.4 |
| 20260506061332 | 52 | 350 | 3.5 | 10.4 | 0.00 | 0.00 | 0.00 | 84 | 1008.4 |
| 20260506060904 | 52 | 13 | 3.5 | 9.6 | 0.00 | 0.00 | 0.00 | 84 | 1008.3 |
| 20260506060831 | 52 | 28 | 3.5 | 9.6 | 0.00 | 0.00 | 0.00 | 84 | 1008.4 |
| 20260506060632 | 52 | 10 | 3.5 | 9.6 | 0.00 | 0.00 | 0.00 | 84 | 1008.3 |
| 20260506060551 | 52 | 17 | 3.5 | 9.6 | 0.00 | 0.00 | 0.00 | 84 | 1008.3 |
| 20260506051403 | 51 | 24 | 3.5 | 9.6 | 0.00 | 0.00 | 0.00 | 86 | 1008.3 |
| 20260506051331 | 51 | 17 | 3.5 | 9.6 | 0.00 | 0.00 | 0.00 | 86 | 1008.3 |
| 20260506050903 | 51 | 48 | 3.5 | 9.6 | 0.00 | 0.00 | 0.00 | 86 | 1008.3 |
| 20260506050829 | 51 | 341 | 3.5 | 9.6 | 0.00 | 0.00 | 0.00 | 86 | 1008.3 |
| 20260506050402 | 51 | 349 | 2.6 | 7.0 | 0.00 | 0.00 | 0.00 | 86 | 1008.3 |
| 20260506050332 | 51 | 15 | 2.6 | 7.0 | 0.00 | 0.00 | 0.00 | 86 | 1008.3 |
| 20260506044902 | 51 | 338 | 3.5 | 8.7 | 0.00 | 0.00 | 0.00 | 86 | 1008.4 |
| 20260506044826 | 51 | 349 | 3.5 | 8.7 | 0.00 | 0.00 | 0.00 | 86 | 1008.4 |
| 20260506044402 | 51 | 0 | 3.5 | 8.7 | 0.00 | 0.00 | 0.00 | 86 | 1008.3 |
| 20260506044322 | 51 | 355 | 3.5 | 8.7 | 0.00 | 0.00 | 0.00 | 86 | 1008.3 |
| 20260506043855 | 51 | 26 | 2.6 | 7.8 | 0.00 | 0.00 | 0.00 | 86 | 1008.4 |
| 20260506043823 | 51 | 347 | 2.6 | 7.8 | 0.00 | 0.00 | 0.00 | 86 | 1008.4 |
| 20260506043605 | 51 | 355 | 2.6 | 9.6 | 0.00 | 0.00 | 0.00 | 86 | 1008.4 |
| 20260506043527 | 51 | 23 | 2.6 | 9.6 | 0.00 | 0.00 | 0.00 | 86 | 1008.4 |
| 20260506043107 | 51 | 355 | 3.5 | 11.3 | 0.00 | 0.00 | 0.00 | 86 | 1008.4 |
| 20260506043028 | 50 | 355 | 3.5 | 11.3 | 0.00 | 0.00 | 0.00 | 86 | 1008.5 |
| 20260506042348 | 50 | 355 | 3.5 | 11.3 | 0.00 | 0.00 | 0.00 | 86 | 1008.5 |
| 20260506042306 | 50 | 10 | 3.5 | 11.3 | 0.00 | 0.00 | 0.00 | 86 | 1008.5 |
| 20260506041846 | 50 | 11 | 2.6 | 7.8 | 0.00 | 0.00 | 0.00 | 86 | 1008.4 |
| 20260506041806 | 50 | 32 | 2.6 | 7.8 | 0.00 | 0.00 | 0.00 | 86 | 1008.4 |
| 20260506041604 | 50 | 5 | 1.7 | 7.8 | 0.00 | 0.00 | 0.00 | 85 | 1008.5 |
| 20260506041524 | 50 | 355 | 1.7 | 7.8 | 0.00 | 0.00 | 0.00 | 85 | 1008.5 |
| 20260506040847 | 50 | 5 | 2.6 | 7.8 | 0.00 | 0.00 | 0.00 | 85 | 1008.4 |
| 20260506040805 | 50 | 348 | 2.6 | 7.8 | 0.00 | 0.00 | 0.00 | 85 | 1008.4 |
| 20260506040348 | 50 | 5 | 2.6 | 7.8 | 0.00 | 0.00 | 0.00 | 85 | 1008.5 |
| 20260506040307 | 50 | 24 | 2.6 | 7.8 | 0.00 | 0.00 | 0.00 | 85 | 1008.5 |
| 20260506035847 | 50 | 39 | 2.6 | 7.8 | 0.00 | 0.00 | 0.00 | 85 | 1008.5 |
| 20260506035804 | 50 | 19 | 2.6 | 8.7 | 0.00 | 0.00 | 0.00 | 85 | 1008.5 |
| 20260506035615 | 50 | 19 | 3.5 | 8.7 | 0.00 | 0.00 | 0.00 | 85 | 1008.5 |
| 20260506035522 | 50 | 38 | 3.5 | 8.7 | 0.00 | 0.00 | 0.00 | 85 | 1008.5 |
| 20260506034844 | 50 | 350 | 2.6 | 8.7 | 0.00 | 0.00 | 0.00 | 85 | 1008.5 |
| 20260506034804 | 50 | 34 | 2.6 | 8.7 | 0.00 | 0.00 | 0.00 | 85 | 1008.5 |
| 20260506034342 | 50 | 23 | 2.6 | 8.7 | 0.00 | 0.00 | 0.00 | 85 | 1008.5 |
| 20260506034303 | 50 | 355 | 2.6 | 8.7 | 0.00 | 0.00 | 0.00 | 85 | 1008.5 |
| 20260506033840 | 50 | 42 | 3.5 | 8.7 | 0.00 | 0.00 | 0.00 | 85 | 1008.6 |
| 20260506033802 | 51 | 48 | 3.5 | 8.7 | 0.00 | 0.00 | 0.00 | 85 | 1008.6 |
| 20260506033340 | 51 | 28 | 3.5 | 8.7 | 0.00 | 0.00 | 0.00 | 85 | 1008.6 |
| 20260506033305 | 51 | 19 | 3.5 | 8.7 | 0.00 | 0.00 | 0.00 | 85 | 1008.6 |
| 20260506032838 | 51 | 44 | 3.5 | 8.7 | 0.00 | 0.00 | 0.00 | 85 | 1008.6 |
| 20260506032801 | 51 | 5 | 3.5 | 8.7 | 0.00 | 0.00 | 0.00 | 85 | 1008.6 |
| 20260506032336 | 51 | 13 | 3.5 | 7.8 | 0.00 | 0.00 | 0.00 | 85 | 1008.7 |
| 20260506032306 | 51 | 18 | 3.5 | 7.8 | 0.00 | 0.00 | 0.00 | 85 | 1008.7 |
| 20260506031832 | 51 | 40 | 3.5 | 7.8 | 0.00 | 0.00 | 0.00 | 85 | 1008.6 |
| 20260506031805 | 51 | 336 | 3.5 | 7.8 | 0.00 | 0.00 | 0.00 | 85 | 1008.6 |
| 20260506031603 | 51 | 24 | 2.6 | 7.8 | 0.00 | 0.00 | 0.00 | 85 | 1008.7 |
| 20260506031523 | 51 | 14 | 2.6 | 7.8 | 0.00 | 0.00 | 0.00 | 85 | 1008.7 |
| 20260506030832 | 51 | 26 | 2.6 | 7.8 | 0.00 | 0.00 | 0.00 | 84 | 1008.7 |
| 20260506030805 | 51 | 32 | 2.6 | 7.8 | 0.00 | 0.00 | 0.00 | 84 | 1008.7 |
| 20260506030331 | 51 | 16 | 3.5 | 10.4 | 0.00 | 0.00 | 0.00 | 84 | 1008.8 |
| 20260506030303 | 51 | 22 | 3.5 | 10.4 | 0.00 | 0.00 | 0.00 | 84 | 1008.8 |
| 20260506025830 | 51 | 5 | 3.5 | 10.4 | 0.00 | 0.00 | 0.00 | 84 | 1008.9 |
| 20260506025803 | 51 | 336 | 3.5 | 10.4 | 0.00 | 0.00 | 0.00 | 84 | 1008.9 |
| 20260506025328 | 51 | 25 | 3.5 | 7.8 | 0.00 | 0.00 | 0.00 | 84 | 1008.9 |
| 20260506025305 | 51 | 16 | 3.5 | 7.8 | 0.00 | 0.00 | 0.00 | 84 | 1008.9 |
| 20260506024829 | 51 | 23 | 3.5 | 7.8 | 0.00 | 0.00 | 0.00 | 84 | 1008.9 |
| 20260506024803 | 51 | 31 | 3.5 | 7.8 | 0.00 | 0.00 | 0.00 | 84 | 1008.9 |
| 20260506024320 | 51 | 17 | 3.5 | 10.4 | 0.00 | 0.00 | 0.00 | 83 | 1009.0 |
| 20260506024304 | 51 | 0 | 3.5 | 10.4 | 0.00 | 0.00 | 0.00 | 83 | 1009.0 |
| 20260506023819 | 51 | 27 | 3.5 | 10.4 | 0.00 | 0.00 | 0.00 | 83 | 1009.0 |
| 20260506023804 | 51 | 18 | 3.5 | 10.4 | 0.00 | 0.00 | 0.00 | 83 | 1009.0 |
| 20260506023318 | 51 | 13 | 2.6 | 7.8 | 0.00 | 0.00 | 0.00 | 82 | 1009.0 |
| 20260506023303 | 51 | 11 | 2.6 | 7.8 | 0.00 | 0.00 | 0.00 | 82 | 1009.0 |
| 20260506022817 | 51 | 19 | 2.6 | 8.7 | 0.00 | 0.00 | 0.00 | 82 | 1009.0 |
| 20260506022802 | 51 | 17 | 2.6 | 8.7 | 0.00 | 0.00 | 0.00 | 82 | 1009.0 |
| 20260506022318 | 51 | 5 | 3.5 | 9.6 | 0.00 | 0.00 | 0.00 | 82 | 1009.0 |
| 20260506022305 | 51 | 34 | 3.5 | 9.6 | 0.00 | 0.00 | 0.00 | 82 | 1009.0 |
| 20260506022103 | 51 | 5 | 2.6 | 9.6 | 0.00 | 0.00 | 0.00 | 82 | 1009.0 |
| 20260506022014 | 51 | 10 | 2.6 | 9.6 | 0.00 | 0.00 | 0.00 | 82 | 1009.0 |
| 20260506021301 | 51 | 19 | 3.5 | 7.8 | 0.00 | 0.00 | 0.00 | 82 | 1009.0 |
| 20260506020810 | 51 | 27 | 3.5 | 9.6 | 0.00 | 0.00 | 0.00 | 82 | 1009.0 |
| 20260506020804 | 51 | 23 | 3.5 | 9.6 | 0.00 | 0.00 | 0.00 | 82 | 1009.0 |
| 20260506020308 | 51 | 39 | 2.6 | 9.6 | 0.00 | 0.00 | 0.00 | 82 | 1009.0 |
| 20260506020303 | 51 | 22 | 2.6 | 9.6 | 0.00 | 0.00 | 0.00 | 82 | 1009.0 |
| 20260506015807 | 51 | 39 | 2.6 | 8.7 | 0.00 | 0.00 | 0.00 | 82 | 1009.0 |
| 20260506015803 | 51 | 37 | 2.6 | 8.7 | 0.00 | 0.00 | 0.00 | 82 | 1009.0 |
| 20260506015305 | 51 | 49 | 3.5 | 7.8 | 0.00 | 0.00 | 0.00 | 82 | 1009.1 |
| 20260506014809 | 51 | 52 | 3.5 | 7.8 | 0.00 | 0.00 | 0.00 | 82 | 1009.1 |
| 20260506014803 | 51 | 41 | 3.5 | 7.8 | 0.00 | 0.00 | 0.00 | 82 | 1009.1 |
| 20260506014307 | 51 | 59 | 3.5 | 7.8 | 0.00 | 0.00 | 0.00 | 82 | 1009.1 |
| 20260506014303 | 51 | 63 | 3.5 | 7.8 | 0.00 | 0.00 | 0.00 | 82 | 1009.1 |
| 20260506013804 | 51 | 31 | 3.5 | 10.4 | 0.00 | 0.00 | 0.00 | 81 | 1009.1 |
| 20260506013302 | 51 | 9 | 4.3 | 10.4 | 0.00 | 0.00 | 0.00 | 81 | 1009.1 |
| 20260506012804 | 51 | 342 | 4.3 | 10.4 | 0.00 | 0.00 | 0.00 | 81 | 1009.1 |
| 20260506012307 | 51 | 39 | 3.5 | 9.6 | 0.00 | 0.00 | 0.00 | 81 | 1009.2 |
| 20260506011803 | 51 | 15 | 4.3 | 10.4 | 0.00 | 0.00 | 0.00 | 80 | 1009.2 |
| 20260506011305 | 51 | 22 | 5.2 | 10.4 | 0.00 | 0.00 | 0.00 | 80 | 1009.3 |
| 20260506011106 | 51 | 338 | 4.3 | 10.4 | 0.00 | 0.00 | 0.00 | 80 | 1009.3 |
| 20260506011013 | 51 | 338 | 4.3 | 10.4 | 0.00 | 0.00 | 0.00 | 80 | 1009.3 |
| 20260506010604 | 51 | 339 | 4.3 | 10.4 | 0.00 | 0.00 | 0.00 | 80 | 1009.3 |
| 20260506010515 | 51 | 339 | 4.3 | 10.4 | 0.00 | 0.00 | 0.00 | 80 | 1009.3 |
| 20260506005804 | 51 | 35 | 5.2 | 11.3 | 0.00 | 0.00 | 0.00 | 80 | 1009.4 |
| 20260506005305 | 51 | 342 | 5.2 | 11.3 | 0.00 | 0.00 | 0.00 | 80 | 1009.5 |
| 20260506005106 | 51 | 22 | 5.2 | 12.2 | 0.00 | 0.00 | 0.00 | 80 | 1009.4 |
| 20260506005012 | 51 | 22 | 5.2 | 12.2 | 0.00 | 0.00 | 0.00 | 80 | 1009.4 |
| 20260506004303 | 51 | 44 | 4.3 | 12.2 | 0.00 | 0.00 | 0.00 | 80 | 1009.5 |
| 20260506003804 | 51 | 44 | 3.5 | 9.6 | 0.00 | 0.00 | 0.00 | 81 | 1009.6 |
| 20260506003303 | 51 | 54 | 3.5 | 9.6 | 0.00 | 0.00 | 0.00 | 81 | 1009.6 |
| 20260506002803 | 51 | 355 | 2.6 | 9.6 | 0.00 | 0.00 | 0.00 | 81 | 1009.7 |
| 20260506002305 | 51 | 13 | 4.3 | 11.3 | 0.00 | 0.00 | 0.00 | 81 | 1009.7 |
| 20260506001801 | 51 | 51 | 4.3 | 11.3 | 0.00 | 0.00 | 0.00 | 81 | 1009.6 |
| 20260506001302 | 51 | 11 | 2.6 | 8.7 | 0.00 | 0.00 | 0.00 | 82 | 1009.7 |
| 20260506000803 | 51 | 38 | 2.6 | 8.7 | 0.00 | 0.00 | 0.00 | 82 | 1009.7 |
| 20260506000303 | 51 | 11 | 2.6 | 9.6 | 0.00 | 0.00 | 0.00 | 82 | 1009.7 |
| 20260506000058 | 51 | 32 | 3.5 | 9.6 | 0.00 | 0.00 | 0.00 | 82 | 1009.7 |
| 20260506000012 | 51 | 32 | 3.5 | 9.6 | 0.00 | 0.00 | 0.00 | 82 | 1009.7 |
| 20260505235304 | 51 | 19 | 3.5 | 7.8 | 0.00 | 0.00 | 0.00 | 82 | 1009.8 |
| 20260505234804 | 51 | 16 | 3.5 | 7.8 | 0.00 | 0.00 | 0.00 | 81 | 1009.8 |
| 20260505234303 | 51 | 30 | 3.5 | 9.6 | 0.00 | 0.00 | 0.00 | 81 | 1009.9 |
| 20260505233803 | 51 | 22 | 3.5 | 9.6 | 0.00 | 0.00 | 0.00 | 82 | 1010.0 |
| 20260505233303 | 51 | 0 | 2.6 | 7.8 | 0.00 | 0.00 | 0.00 | 82 | 1010.1 |
| 20260505232803 | 51 | 56 | 3.5 | 7.8 | 0.00 | 0.00 | 0.00 | 82 | 1010.1 |
| 20260505232305 | 51 | 9 | 3.5 | 7.8 | 0.00 | 0.00 | 0.00 | 82 | 1010.1 |
| 20260505231802 | 51 | 17 | 3.5 | 9.6 | 0.00 | 0.00 | 0.00 | 82 | 1010.1 |
| 20260505231303 | 51 | 28 | 3.5 | 9.6 | 0.00 | 0.00 | 0.00 | 82 | 1010.2 |
| 20260505230803 | 51 | 19 | 3.5 | 7.0 | 0.00 | 0.00 | 0.00 | 83 | 1010.2 |
| 20260505230304 | 50 | 28 | 3.5 | 10.4 | 0.00 | 0.00 | 0.00 | 83 | 1010.2 |
| 20260505225803 | 50 | 42 | 3.5 | 10.4 | 0.00 | 0.00 | 0.00 | 83 | 1010.2 |
| 20260505225305 | 50 | 36 | 3.5 | 8.7 | 0.00 | 0.00 | 0.00 | 83 | 1010.2 |
| 20260505224801 | 50 | 11 | 3.5 | 9.6 | 0.00 | 0.00 | 0.00 | 83 | 1010.3 |
| 20260505224304 | 50 | 34 | 3.5 | 9.6 | 0.00 | 0.00 | 0.00 | 83 | 1010.3 |
| 20260505223804 | 50 | 340 | 2.6 | 7.8 | 0.00 | 0.00 | 0.00 | 83 | 1010.3 |
| 20260505223304 | 50 | 40 | 3.5 | 7.8 | 0.00 | 0.00 | 0.00 | 83 | 1010.4 |
| 20260505222803 | 50 | 11 | 2.6 | 7.8 | 0.00 | 0.00 | 0.00 | 83 | 1010.4 |
| 20260505222305 | 50 | 27 | 3.5 | 11.3 | 0.00 | 0.00 | 0.00 | 83 | 1010.5 |
| 20260505221805 | 50 | 355 | 4.3 | 11.3 | 0.00 | 0.00 | 0.00 | 83 | 1010.5 |
| 20260505221302 | 50 | 30 | 3.5 | 12.2 | 0.00 | 0.00 | 0.00 | 83 | 1010.5 |
| 20260505220802 | 50 | 35 | 4.3 | 12.2 | 0.00 | 0.00 | 0.00 | 83 | 1010.6 |
| 20260505220302 | 50 | 355 | 4.3 | 9.6 | 0.00 | 0.00 | 0.00 | 83 | 1010.5 |
| 20260505215802 | 50 | 5 | 3.5 | 11.3 | 0.00 | 0.00 | 0.00 | 84 | 1010.6 |
| 20260505215304 | 50 | 23 | 2.6 | 11.3 | 0.00 | 0.00 | 0.00 | 84 | 1010.6 |
| 20260505214804 | 50 | 19 | 2.6 | 7.8 | 0.00 | 0.00 | 0.00 | 84 | 1010.6 |
| 20260505214304 | 50 | 34 | 1.7 | 7.8 | 0.00 | 0.00 | 0.00 | 83 | 1010.7 |
| 20260505213803 | 50 | 26 | 1.7 | 6.1 | 0.00 | 0.00 | 0.00 | 83 | 1010.7 |
| 20260505213302 | 50 | 35 | 1.7 | 6.1 | 0.00 | 0.00 | 0.00 | 82 | 1010.7 |
| 20260505212803 | 50 | 38 | 2.6 | 7.0 | 0.00 | 0.00 | 0.00 | 82 | 1010.7 |
| 20260505212301 | 50 | 28 | 3.5 | 7.8 | 0.00 | 0.00 | 0.00 | 81 | 1010.7 |
| 20260505211803 | 50 | 26 | 3.5 | 8.7 | 0.00 | 0.00 | 0.00 | 80 | 1010.7 |
| 20260505211302 | 51 | 47 | 3.5 | 9.6 | 0.00 | 0.00 | 0.00 | 80 | 1010.6 |
| 20260505210805 | 51 | 355 | 3.5 | 9.6 | 0.00 | 0.00 | 0.00 | 79 | 1010.6 |
| 20260505210302 | 51 | 32 | 4.3 | 8.7 | 0.00 | 0.00 | 0.00 | 79 | 1010.6 |
| 20260505205803 | 51 | 25 | 4.3 | 8.7 | 0.00 | 0.00 | 0.00 | 78 | 1010.7 |
| 20260505205304 | 51 | 24 | 4.3 | 10.4 | 0.00 | 0.00 | 0.00 | 77 | 1010.8 |
| 20260505204802 | 51 | 42 | 4.3 | 10.4 | 0.00 | 0.00 | 0.00 | 77 | 1010.9 |
| 20260505204303 | 51 | 41 | 3.5 | 9.6 | 0.00 | 0.00 | 0.00 | 76 | 1010.9 |
| 20260505203805 | 51 | 45 | 3.5 | 9.6 | 0.00 | 0.00 | 0.00 | 75 | 1010.9 |
| 20260505203302 | 51 | 42 | 4.3 | 9.6 | 0.00 | 0.00 | 0.00 | 75 | 1010.9 |
| 20260505202802 | 51 | 346 | 4.3 | 9.6 | 0.00 | 0.00 | 0.00 | 74 | 1010.9 |
| 20260505202306 | 51 | 18 | 4.3 | 12.2 | 0.00 | 0.00 | 0.00 | 74 | 1010.9 |
| 20260505201804 | 51 | 23 | 3.5 | 12.2 | 0.00 | 0.00 | 0.00 | 75 | 1010.9 |
| 20260505201604 | 51 | 11 | 4.3 | 9.6 | 0.00 | 0.00 | 0.00 | 74 | 1010.8 |
| 20260505201513 | 51 | 11 | 4.3 | 9.6 | 0.00 | 0.00 | 0.00 | 74 | 1010.8 |
| 20260505200802 | 51 | 30 | 4.3 | 11.3 | 0.00 | 0.00 | 0.00 | 74 | 1010.8 |
| 20260505200303 | 51 | 18 | 3.5 | 11.3 | 0.00 | 0.00 | 0.00 | 74 | 1010.8 |
| 20260505195803 | 51 | 29 | 3.5 | 11.3 | 0.00 | 0.00 | 0.00 | 74 | 1010.8 |
| 20260505195558 | 51 | 0 | 3.5 | 11.3 | 0.00 | 0.00 | 0.00 | 75 | 1010.8 |
| 20260505195510 | 51 | 0 | 3.5 | 11.3 | 0.00 | 0.00 | 0.00 | 75 | 1010.8 |
| 20260505194801 | 52 | 57 | 4.3 | 11.3 | 0.00 | 0.00 | 0.00 | 75 | 1010.6 |
| 20260505194304 | 52 | 24 | 3.5 | 10.4 | 0.00 | 0.00 | 0.00 | 75 | 1010.6 |
| 20260505193802 | 52 | 40 | 4.3 | 10.4 | 0.00 | 0.00 | 0.00 | 75 | 1010.6 |
| 20260505193301 | 52 | 39 | 4.3 | 9.6 | 0.00 | 0.00 | 0.00 | 75 | 1010.5 |
| 20260505192804 | 52 | 28 | 4.3 | 11.3 | 0.00 | 0.00 | 0.00 | 75 | 1010.5 |
| 20260505192305 | 52 | 26 | 4.3 | 12.2 | 0.00 | 0.00 | 0.00 | 75 | 1010.4 |
| 20260505191802 | 52 | 337 | 3.5 | 12.2 | 0.00 | 0.00 | 0.00 | 75 | 1010.3 |
| 20260505191303 | 52 | 28 | 3.5 | 11.3 | 0.00 | 0.00 | 0.00 | 75 | 1010.3 |
| 20260505190806 | 52 | 332 | 4.3 | 11.3 | 0.00 | 0.00 | 0.00 | 75 | 1010.2 |
| 20260505190559 | 53 | 26 | 4.3 | 11.3 | 0.00 | 0.00 | 0.00 | 75 | 1010.2 |
| 20260505190511 | 53 | 26 | 4.3 | 11.3 | 0.00 | 0.00 | 0.00 | 75 | 1010.2 |
| 20260505185802 | 53 | 15 | 5.2 | 13.9 | 0.00 | 0.00 | 0.00 | 75 | 1010.2 |
| 20260505185305 | 53 | 32 | 4.3 | 13.9 | 0.00 | 0.00 | 0.00 | 76 | 1010.1 |
| 20260505184802 | 53 | 319 | 3.5 | 10.4 | 0.00 | 0.00 | 0.00 | 76 | 1010.2 |
| 20260505184302 | 53 | 344 | 4.3 | 10.4 | 0.00 | 0.00 | 0.00 | 76 | 1010.2 |
| 20260505183802 | 53 | 17 | 5.2 | 11.3 | 0.00 | 0.00 | 0.00 | 76 | 1010.1 |
| 20260505183302 | 53 | 9 | 5.2 | 12.2 | 0.00 | 0.00 | 0.00 | 75 | 1010.2 |
| 20260505182802 | 53 | 349 | 5.2 | 15.6 | 0.00 | 0.00 | 0.00 | 75 | 1010.1 |
| 20260505182306 | 53 | 22 | 6.1 | 15.6 | 0.00 | 0.00 | 0.00 | 75 | 1010.1 |
| 20260505182119 | 53 | 33 | 4.3 | 10.4 | 0.00 | 0.00 | 0.00 | 75 | 1010.1 |
| 20260505182012 | 53 | 33 | 4.3 | 10.4 | 0.00 | 0.00 | 0.00 | 75 | 1010.1 |
| 20260505181304 | 53 | 39 | 4.3 | 9.6 | 0.00 | 0.00 | 0.00 | 75 | 1010.1 |
| 20260505180803 | 54 | 350 | 5.2 | 10.4 | 0.00 | 0.00 | 0.00 | 75 | 1010.1 |
| 20260505180302 | 54 | 13 | 5.2 | 12.2 | 0.00 | 0.00 | 0.00 | 74 | 1010.1 |
| 20260505175802 | 54 | 19 | 4.3 | 12.2 | 0.00 | 0.00 | 0.00 | 75 | 1010.1 |
| 20260505175305 | 54 | 25 | 4.3 | 11.3 | 0.00 | 0.00 | 0.00 | 75 | 1010.2 |
| 20260505174804 | 54 | 5 | 5.2 | 11.3 | 0.00 | 0.00 | 0.00 | 74 | 1010.2 |
| 20260505174302 | 54 | 38 | 5.2 | 11.3 | 0.00 | 0.00 | 0.00 | 74 | 1010.2 |
| 20260505173805 | 54 | 339 | 5.2 | 11.3 | 0.00 | 0.00 | 0.00 | 74 | 1010.2 |
| 20260505173305 | 55 | 324 | 4.3 | 11.3 | 0.00 | 0.00 | 0.00 | 73 | 1010.2 |
| 20260505172803 | 55 | 350 | 4.3 | 10.4 | 0.00 | 0.00 | 0.00 | 73 | 1010.2 |
| 20260505172305 | 55 | 40 | 5.2 | 13.9 | 0.00 | 0.00 | 0.00 | 72 | 1010.1 |
| 20260505171802 | 55 | 46 | 5.2 | 13.9 | 0.00 | 0.00 | 0.00 | 72 | 1010.2 |
| 20260505171304 | 55 | 5 | 5.2 | 13.0 | 0.00 | 0.00 | 0.00 | 73 | 1010.1 |
| 20260505170802 | 56 | 12 | 5.2 | 13.0 | 0.00 | 0.00 | 0.00 | 73 | 1010.2 |
| 20260505170304 | 56 | 348 | 5.2 | 11.3 | 0.00 | 0.00 | 0.00 | 72 | 1010.2 |
| 20260505165803 | 56 | 342 | 6.1 | 12.2 | 0.00 | 0.00 | 0.00 | 72 | 1010.2 |
| 20260505165305 | 56 | 355 | 6.1 | 12.2 | 0.00 | 0.00 | 0.00 | 73 | 1010.2 |
| 20260505164803 | 56 | 12 | 6.1 | 13.0 | 0.00 | 0.00 | 0.00 | 73 | 1010.2 |
| 20260505164559 | 56 | 9 | 6.1 | 13.0 | 0.00 | 0.00 | 0.00 | 73 | 1010.2 |
| 20260505164511 | 56 | 9 | 6.1 | 13.0 | 0.00 | 0.00 | 0.00 | 73 | 1010.2 |
| 20260505164105 | 56 | 355 | 6.1 | 12.2 | 0.00 | 0.00 | 0.00 | 73 | 1010.2 |
| 20260505164012 | 56 | 355 | 6.1 | 12.2 | 0.00 | 0.00 | 0.00 | 73 | 1010.2 |
| 20260505163305 | 56 | 343 | 5.2 | 11.3 | 0.00 | 0.00 | 0.00 | 73 | 1010.3 |
| 20260505162805 | 56 | 307 | 6.1 | 13.9 | 0.00 | 0.00 | 0.00 | 73 | 1010.2 |
| 20260505162306 | 56 | 355 | 6.1 | 13.9 | 0.00 | 0.00 | 0.00 | 73 | 1010.3 |
| 20260505161815 | 56 | 11 | 5.2 | 13.0 | 0.00 | 0.00 | 0.00 | 73 | 1010.3 |
| 20260505161305 | 56 | 9 | 5.2 | 13.0 | 0.00 | 0.00 | 0.00 | 72 | 1010.2 |
| 20260505160802 | 56 | 350 | 5.2 | 11.3 | 0.00 | 0.00 | 0.00 | 73 | 1010.2 |
| 20260505160305 | 56 | 24 | 5.2 | 12.2 | 0.00 | 0.00 | 0.00 | 72 | 1010.2 |
| 20260505153304 | 57 | 53 | 6.1 | 13.9 | 0.00 | 0.00 | 0.00 | 71 | 1010.3 |
| 20260505152806 | 57 | 19 | 6.1 | 16.5 | 0.00 | 0.00 | 0.00 | 71 | 1010.3 |
| 20260505152305 | 58 | 319 | 6.1 | 16.5 | 0.00 | 0.00 | 0.00 | 70 | 1010.3 |
| 20260505151804 | 58 | 21 | 7.0 | 16.5 | 0.00 | 0.00 | 0.00 | 70 | 1010.4 |
| 20260505151302 | 57 | 331 | 7.8 | 16.5 | 0.00 | 0.00 | 0.00 | 69 | 1010.4 |
| 20260505150802 | 57 | 341 | 7.0 | 14.8 | 0.00 | 0.00 | 0.00 | 70 | 1010.4 |
| 20260505150605 | 57 | 20 | 7.8 | 14.8 | 0.00 | 0.00 | 0.00 | 70 | 1010.3 |
| 20260505150513 | 57 | 20 | 7.8 | 14.8 | 0.00 | 0.00 | 0.00 | 70 | 1010.3 |
| 20260505140305 | 57 | 355 | 6.1 | 15.6 | 0.00 | 0.00 | 0.00 | 69 | 1010.6 |
| 20260505130305 | 57 | 9 | 6.1 | 14.8 | 0.00 | 0.00 | 0.00 | 71 | 1011.0 |
| 20260505124804 | 58 | 5 | 5.2 | 12.2 | 0.00 | 0.00 | 0.00 | 69 | 1011.0 |
| 20260505124303 | 57 | 312 | 6.1 | 13.9 | 0.00 | 0.00 | 0.00 | 71 | 1011.0 |
| 20260505123803 | 57 | 349 | 6.1 | 13.9 | 0.00 | 0.00 | 0.00 | 70 | 1011.1 |
| 20260505123304 | 58 | 342 | 5.2 | 11.3 | 0.00 | 0.00 | 0.00 | 70 | 1011.1 |
| 20260505122803 | 58 | 318 | 5.2 | 11.3 | 0.00 | 0.00 | 0.00 | 71 | 1011.0 |
| 20260505122305 | 58 | 334 | 6.1 | 12.2 | 0.00 | 0.00 | 0.00 | 70 | 1011.1 |
| 20260505121803 | 58 | 291 | 5.2 | 12.2 | 0.00 | 0.00 | 0.00 | 70 | 1011.2 |
| 20260505121303 | 58 | 338 | 5.2 | 13.0 | 0.00 | 0.00 | 0.00 | 71 | 1011.2 |
| 20260505120801 | 58 | 333 | 4.3 | 13.0 | 0.00 | 0.00 | 0.00 | 70 | 1011.3 |
| 20260505120258 | 58 | 336 | 3.5 | 10.4 | 0.00 | 0.00 | 0.00 | 71 | 1011.3 |
| 20260505115757 | 58 | 28 | 4.3 | 10.4 | 0.00 | 0.00 | 0.00 | 72 | 1011.3 |
| 20260505115258 | 58 | 311 | 4.3 | 11.3 | 0.00 | 0.00 | 0.00 | 72 | 1011.3 |
| 20260505114756 | 57 | 309 | 5.2 | 12.2 | 0.00 | 0.00 | 0.00 | 71 | 1011.4 |
| 20260505114251 | 57 | 299 | 4.3 | 12.2 | 0.00 | 0.00 | 0.00 | 71 | 1011.4 |
| 20260505113750 | 58 | 22 | 3.5 | 13.0 | 0.00 | 0.00 | 0.00 | 70 | 1011.4 |
| 20260505113251 | 58 | 343 | 4.3 | 13.0 | 0.00 | 0.00 | 0.00 | 72 | 1011.4 |
| 20260505112750 | 57 | 19 | 4.3 | 9.6 | 0.00 | 0.00 | 0.00 | 72 | 1011.4 |
| 20260505112545 | 56 | 323 | 3.5 | 9.6 | 0.00 | 0.00 | 0.00 | 71 | 1011.4 |
| 20260505112454 | 56 | 323 | 3.5 | 9.6 | 0.00 | 0.00 | 0.00 | 71 | 1011.4 |
| 20260505111742 | 57 | 31 | 3.5 | 13.0 | 0.00 | 0.00 | 0.00 | 71 | 1011.5 |
| 20260505111243 | 57 | 36 | 4.3 | 13.0 | 0.00 | 0.00 | 0.00 | 72 | 1011.5 |
| 20260505110741 | 56 | 51 | 4.3 | 9.6 | 0.00 | 0.00 | 0.00 | 72 | 1011.5 |
| 20260505110242 | 56 | 48 | 3.5 | 10.4 | 0.00 | 0.00 | 0.00 | 74 | 1011.5 |